[[{"header":{"parameterUnit":"m.s-1","parameterCategory":1,"la1":30.2992,"la2":30.254,"lo1":-89.0895,"lo2":-89.0443,"dy":0.0025,"dx":0.0025,"nx":19,"ny":19,"refTime":"2026-03-06T03:00:00:Z","depth":0,"parameterNumber":2,"parameterNumberName":"U-component_of_WINDS"},"data":[0,0,0,-3.9733,-3.9736,-3.9854,-3.9854,-4.0014,-4.0016,0,0,0,0,0,0,0,0,0,0,0,-3.9703,-3.9704,-3.9733,-3.9736,-3.9854,-3.9854,-4.0014,-4.0016,0,0,0,0,0,0,0,0,0,0,0,-3.9702,-3.9704,-3.9705,-3.9736,-3.9854,-3.9854,-4.0014,-3.9921,0,0,0,0,0,0,0,0,0,0,-3.9805,-3.9782,-3.9703,-3.9705,-3.9737,-3.9854,-3.9854,-3.9917,-3.9927,-3.9965,0,-3.9999,0,-4.001,-4.0027,-4.0028,0,0,0,-3.9732,-3.9773,-3.9801,-3.9706,-3.9738,-3.9853,-3.9799,-3.9923,-3.9934,-3.9979,-4.0001,-4.0007,-4.0013,-4.0028,-4.0029,-4.0258,-4.0259,0,0,-3.9726,-3.9727,-3.9793,-3.9809,-3.9791,-3.9796,-3.9803,-3.993,-3.9954,-4.0002,-4.001,-4.0015,-4.0029,-4.0031,-4.0256,-4.0258,0,0,0,-3.9709,-3.9722,-3.9746,-3.9803,-3.9823,-3.9799,-3.9808,-3.9949,-3.9956,-4.0012,-4.0017,-4.003,-4.0032,-4.0255,-4.0257,-4.0318,0,0,0,-3.9705,-3.9713,-3.9744,-3.9746,-3.9821,-3.9887,-3.9824,-3.9948,-3.9962,-4.0017,-4.003,-4.0034,-4.0254,-4.0256,-4.0314,-4.0346,0,0,0,-3.9694,-3.9711,-3.973,-3.9745,-3.9796,-3.9885,-3.99,-3.9951,-3.9965,-4.0028,-4.0035,-4.0253,-4.0256,-4.0309,-4.0339,-4.0406,0,0,0,-3.9681,-3.9783,-3.9731,-3.9847,-3.9795,-3.9923,-3.9899,-3.9994,-4.0055,-4.0031,-4.0254,-4.0257,-4.0308,-4.0335,-4.0401,-4.046,-4.0485,0,0,-3.981,-3.9798,-3.9867,-3.9824,-3.9961,-3.9905,-4.0051,-4.0106,-4.0111,-4.0209,-4.0214,-4.0315,-4.0339,-4.0405,-4.063,-4.065,0,0,0,-3.9908,-3.9956,-3.9993,-4.0051,-4.0097,-4.0138,-4.0171,-4.0192,-4.0274,-4.0162,-4.0358,-4.0372,-4.0411,-4.0439,-4.0456,-4.0488,-4.027,-4.027,-4.027,-4.0089,-4.0091,-4.0204,-4.0222,-4.0279,-4.0314,-4.036,-4.0394,-4.0379,-4.0426,-4.0454,-4.059,-4.0623,-4.0636,-4.067,-4.0487,-4.0488,-4.0488,-4.0488,-4.0276,-4.0344,-4.0325,-4.0427,-4.043,-4.0516,-4.0555,-4.0542,-4.0623,-4.0569,-4.0603,-4.0542,-4.0658,-4.0687,-4.0493,-4.0492,-4.0491,-4.0491,-4.0491,-4.0392,-4.0425,-4.045,-4.0537,-4.0604,-4.0619,-4.0698,-4.0698,-4.0699,-4.0733,-4.0762,-4.0761,-4.0758,-4.0748,-4.0748,-4.0749,-4.0749,-4.0749,-4.075,-4.0501,-4.0528,-4.0594,-4.0653,-4.0692,-4.0743,-4.0782,-4.082,-4.0862,-4.0856,-4.0856,-4.0836,-4.067,-4.0626,-4.0757,-4.0756,-4.0755,-4.0754,-4.0753,-4.0685,-4.0644,-4.0746,-4.0785,-4.0856,-4.0922,-4.0924,-4.1002,-4.1034,-4.1074,-4.1048,-4.0926,-4.0913,-4.09,-4.0864,-4.1048,-4.1048,-4.1048,-4.1048,-4.078,-4.0776,-4.0881,-4.0944,-4.1005,-4.1018,-4.1134,-4.1167,-4.1194,-4.1214,-4.1189,-4.1142,-4.1128,-4.1124,-4.1106,-4.1072,-4.1305,-4.1305,-4.1305,-4.0893,-4.0895,-4.0992,-4.1019,-4.1075,-4.1123,-4.1233,-4.1307,-4.1329,-4.1316,-4.123,-4.1219,-4.1144,-4.112,-4.1099,-4.1071,-4.1009,0,0]},{"header":{"parameterUnit":"m.s-1","parameterCategory":1,"la1":30.2992,"la2":30.254,"lo1":-89.0895,"lo2":-89.0443,"dy":0.0025,"dx":0.0025,"nx":19,"ny":19,"refTime":"2026-03-06T03:00:00:Z","depth":0,"parameterNumber":3,"parameterNumberName":"V-component_of_WINDS"},"data":[0,0,0,1.9872,1.9872,1.9886,1.9886,1.9893,1.9893,0,0,0,0,0,0,0,0,0,0,0,1.9863,1.9863,1.9872,1.9872,1.9886,1.9886,1.9893,1.9893,0,0,0,0,0,0,0,0,0,0,0,1.9863,1.9863,1.9863,1.9872,1.9886,1.9886,1.9893,1.9886,0,0,0,0,0,0,0,0,0,0,1.9874,1.9862,1.9863,1.9863,1.9872,1.9886,1.9886,1.9886,1.9886,1.9883,0,1.988,0,1.9887,1.9893,1.9893,0,0,0,1.9875,1.9861,1.987,1.9863,1.9872,1.9886,1.988,1.9886,1.9887,1.9884,1.9881,1.9881,1.9887,1.9893,1.9893,1.9872,1.9871,0,0,1.9874,1.9862,1.9869,1.987,1.9869,1.988,1.9881,1.9887,1.9881,1.9881,1.9881,1.9887,1.9893,1.9893,1.9872,1.9872,0,0,0,1.987,1.9861,1.987,1.9869,1.9873,1.988,1.9881,1.9881,1.9885,1.9882,1.9887,1.9893,1.9893,1.9872,1.9872,1.9851,0,0,0,1.987,1.9859,1.9869,1.9862,1.9873,1.9877,1.9875,1.9885,1.9886,1.9887,1.9893,1.9893,1.9872,1.9872,1.9852,1.9842,0,0,0,1.9864,1.9859,1.9859,1.9862,1.9867,1.9878,1.9882,1.9885,1.9889,1.9893,1.9893,1.9873,1.9872,1.9853,1.9844,1.9835,0,0,0,1.9853,1.9837,1.9859,1.9844,1.9867,1.9865,1.9882,1.988,1.9881,1.9893,1.9872,1.9872,1.9853,1.9845,1.9836,1.9825,1.982,0,0,1.9826,1.9834,1.9826,1.9846,1.9837,1.9864,1.9852,1.9862,1.9872,1.9871,1.987,1.9852,1.9844,1.9835,1.9793,1.9788,0,0,0,1.9814,1.9808,1.9808,1.9811,1.982,1.9828,1.9843,1.9847,1.9848,1.987,1.9846,1.9842,1.9837,1.9832,1.9829,1.9826,1.9869,1.9869,1.9869,1.9757,1.9774,1.9764,1.9783,1.9785,1.9802,1.9805,1.9813,1.9826,1.9821,1.982,1.9793,1.9787,1.9785,1.9782,1.9816,1.9816,1.9816,1.9816,1.9721,1.9716,1.9739,1.9737,1.9755,1.9752,1.9769,1.9779,1.9779,1.9794,1.979,1.9805,1.9779,1.9778,1.9814,1.9815,1.9815,1.9815,1.9815,1.9686,1.9687,1.9696,1.9703,1.9707,1.9727,1.9727,1.9742,1.9756,1.9753,1.9755,1.9756,1.9759,1.9753,1.9753,1.9753,1.9753,1.9753,1.9753,1.9647,1.9657,1.9657,1.967,1.9675,1.9684,1.9704,1.9709,1.9718,1.9729,1.9729,1.9744,1.9774,1.9782,1.9752,1.9752,1.9752,1.9752,1.9752,1.9604,1.9617,1.9617,1.9623,1.9641,1.9645,1.9666,1.9676,1.9682,1.9682,1.9699,1.9719,1.9726,1.9729,1.9736,1.9695,1.9695,1.9695,1.9695,1.9575,1.9582,1.9587,1.9596,1.9606,1.9627,1.9626,1.9642,1.966,1.9666,1.9674,1.9684,1.9686,1.9692,1.9696,1.9702,1.9654,1.9654,1.9654,1.955,1.956,1.9556,1.9578,1.9594,1.9607,1.9608,1.9616,1.9639,1.9653,1.9671,1.9672,1.9688,1.9693,1.9705,1.971,1.9722,0,0]}]]